User: anonymous   Login
Location: Unspecified
(0.0000°N, 0.0000°E)
Time: 10:13:29
(UTC+00:00)
Language:

COSMOS 2467 - Orbit

View from above orbital plane
View from above orbital plane
View from above satellite
View from above satellite

Ground track
Ground track

The orbit data is extracted from the following two-line orbital elements,

1 37152U 10043A   18113.85153409 -.00000005 +00000-0 -10770-3 0  9990
2 37152 082.4542 126.6653 0002246 125.9894 234.1392 12.42878073345802
Epoch (UTC): 23 April 2018 20:26:12
Eccentricity: 0.0002246
inclination: 82.4542°
perigee height: 1492 km
apogee height: 1496 km
right ascension of ascending node: 126.6653°
argument of perigee: 125.9894°
revolutions per day: 12.42878073
mean anomaly at epoch: 234.1392°
orbit number at epoch: 34580

The dashed part of the orbit path shows where the satellite is in the earth's shadow,  

DLR